Date_Time,Julian_Date,Latitude,Longitude,Instrument_Depth,U,V,Speed,Direction
(yyyy-mm-dd hh:mn:ss UTC),(JD),(+ deg. North),(+ deg. East),(m),(cm/s),(cm/s),(cm/s),(deg True)
1983-08-10 18:00:00 UTC,2445557.250000,28.7467,-95.2267,0192,1.88,11.85,12.0000,9.0000
1983-08-10 18:30:00 UTC,2445557.270833,28.7467,-95.2267,0192,2.70,12.72,13.0000,12.0000
1983-08-10 19:00:00 UTC,2445557.291667,28.7467,-95.2267,0192,3.14,12.61,13.0000,14.0000
1983-08-10 19:30:00 UTC,2445557.312500,28.7467,-95.2267,0192,3.15,13.64,14.0000,13.0000
1983-08-10 20:00:00 UTC,2445557.333333,28.7467,-95.2267,0192,3.37,14.62,15.0000,13.0000
1983-08-10 20:30:00 UTC,2445557.354167,28.7467,-95.2267,0192,3.37,14.62,15.0000,13.0000
1983-08-10 21:00:00 UTC,2445557.375000,28.7467,-95.2267,0192,3.60,15.59,16.0000,13.0000
1983-08-10 21:30:00 UTC,2445557.395833,28.7467,-95.2267,0192,4.64,14.27,15.0000,18.0000
1983-08-10 22:00:00 UTC,2445557.416667,28.7467,-95.2267,0192,5.90,11.58,13.0000,27.0000
1983-08-10 22:30:00 UTC,2445557.437500,28.7467,-95.2267,0192,6.16,7.88,10.0000,38.0000
1983-08-10 23:00:00 UTC,2445557.458333,28.7467,-95.2267,0192,6.63,4.47,8.0000,56.0000
1983-08-10 23:30:00 UTC,2445557.479167,28.7467,-95.2267,0192,6.85,1.46,7.0000,78.0000
1983-08-11 00:00:00 UTC,2445557.500000,28.7467,-95.2267,0192,6.85,-1.46,7.0000,102.0000
1983-08-11 00:30:00 UTC,2445557.520833,28.7467,-95.2267,0192,5.12,-4.77,7.0000,133.0000
1983-08-11 01:00:00 UTC,2445557.541667,28.7467,-95.2267,0192,3.23,-8.40,9.0000,159.0000
1983-08-11 01:30:00 UTC,2445557.562500,28.7467,-95.2267,0192,1.72,-10.86,11.0000,171.0000
1983-08-11 02:00:00 UTC,2445557.583333,28.7467,-95.2267,0192,0.63,-11.98,12.0000,177.0000
1983-08-11 02:30:00 UTC,2445557.604167,28.7467,-95.2267,0192,-0.91,-12.97,13.0000,184.0000
1983-08-11 03:00:00 UTC,2445557.625000,28.7467,-95.2267,0192,-2.70,-12.72,13.0000,192.0000
1983-08-11 03:30:00 UTC,2445557.645833,28.7467,-95.2267,0192,-4.66,-12.14,13.0000,201.0000
1983-08-11 04:00:00 UTC,2445557.666667,28.7467,-95.2267,0192,-6.30,-11.37,13.0000,209.0000
1983-08-11 04:30:00 UTC,2445557.687500,28.7467,-95.2267,0192,-7.73,-12.86,15.0000,211.0000
1983-08-11 05:00:00 UTC,2445557.708333,28.7467,-95.2267,0192,-7.76,-13.99,16.0000,209.0000
1983-08-11 05:30:00 UTC,2445557.729167,28.7467,-95.2267,0192,-8.24,-14.87,17.0000,209.0000
1983-08-11 06:00:00 UTC,2445557.750000,28.7467,-95.2267,0192,-8.48,-13.57,16.0000,212.0000
1983-08-11 06:30:00 UTC,2445557.770833,28.7467,-95.2267,0192,-9.51,-14.09,17.0000,214.0000
1983-08-11 07:00:00 UTC,2445557.791667,28.7467,-95.2267,0192,-9.51,-14.09,17.0000,214.0000
1983-08-11 07:30:00 UTC,2445557.812500,28.7467,-95.2267,0192,-8.50,-14.72,17.0000,210.0000
1983-08-11 08:00:00 UTC,2445557.833333,28.7467,-95.2267,0192,-5.86,-13.81,15.0000,203.0000
1983-08-11 08:30:00 UTC,2445557.854167,28.7467,-95.2267,0192,-3.51,-11.48,12.0000,197.0000
1983-08-11 09:00:00 UTC,2445557.875000,28.7467,-95.2267,0192,-2.78,-8.56,9.0000,198.0000
1983-08-11 09:30:00 UTC,2445557.895833,28.7467,-95.2267,0192,-2.85,-6.39,7.0000,204.0000
1983-08-11 10:00:00 UTC,2445557.916667,28.7467,-95.2267,0192,-2.35,-3.24,4.0000,216.0000
1983-08-11 10:30:00 UTC,2445557.937500,28.7467,-95.2267,0192,-0.98,0.21,1.0000,282.0000
1983-08-11 11:00:00 UTC,2445557.958333,28.7467,-95.2267,0192,-0.97,0.24,1.0000,284.0000
1983-08-11 11:30:00 UTC,2445557.979167,28.7467,-95.2267,0192,-3.85,-1.10,4.0000,254.0000
1983-08-11 12:00:00 UTC,2445558.000000,28.7467,-95.2267,0192,-6.69,-2.05,7.0000,253.0000
1983-08-11 12:30:00 UTC,2445558.020833,28.7467,-95.2267,0192,-7.73,-2.07,8.0000,255.0000
1983-08-11 13:00:00 UTC,2445558.041667,28.7467,-95.2267,0192,-8.73,-2.18,9.0000,256.0000
1983-08-11 13:30:00 UTC,2445558.062500,28.7467,-95.2267,0192,-7.61,-2.47,8.0000,252.0000
1983-08-11 14:00:00 UTC,2445558.083333,28.7467,-95.2267,0192,-6.44,-2.74,7.0000,247.0000
1983-08-11 14:30:00 UTC,2445558.104167,28.7467,-95.2267,0192,-4.78,-1.46,5.0000,253.0000
1983-08-11 15:00:00 UTC,2445558.125000,28.7467,-95.2267,0192,-3.88,-0.97,4.0000,256.0000
1983-08-11 15:30:00 UTC,2445558.145833,28.7467,-95.2267,0192,-1.73,-1.00,2.0000,240.0000
1983-08-11 16:00:00 UTC,2445558.166667,28.7467,-95.2267,0192,-0.45,-0.89,1.0000,207.0000
1983-08-11 16:30:00 UTC,2445558.187500,28.7467,-95.2267,0192,0.98,0.17,1.0000,80.0000
1983-08-11 17:00:00 UTC,2445558.208333,28.7467,-95.2267,0192,2.76,1.17,3.0000,67.0000
1983-08-11 17:30:00 UTC,2445558.229167,28.7467,-95.2267,0192,4.94,0.78,5.0000,81.0000
1983-08-11 18:00:00 UTC,2445558.250000,28.7467,-95.2267,0192,6.99,0.37,7.0000,87.0000
1983-08-11 18:30:00 UTC,2445558.270833,28.7467,-95.2267,0192,6.82,1.57,7.0000,77.0000
1983-08-11 19:00:00 UTC,2445558.291667,28.7467,-95.2267,0192,5.87,3.81,7.0000,57.0000
1983-08-11 19:30:00 UTC,2445558.312500,28.7467,-95.2267,0192,5.36,4.50,7.0000,50.0000
1983-08-11 20:00:00 UTC,2445558.333333,28.7467,-95.2267,0192,6.47,4.70,8.0000,54.0000
1983-08-11 20:30:00 UTC,2445558.354167,28.7467,-95.2267,0192,7.37,5.16,9.0000,55.0000
1983-08-11 21:00:00 UTC,2445558.375000,28.7467,-95.2267,0192,7.88,6.16,10.0000,52.0000
1983-08-11 21:30:00 UTC,2445558.395833,28.7467,-95.2267,0192,8.92,8.03,12.0000,48.0000
1983-08-11 22:00:00 UTC,2445558.416667,28.7467,-95.2267,0192,8.18,8.78,12.0000,43.0000
1983-08-11 22:30:00 UTC,2445558.437500,28.7467,-95.2267,0192,8.00,10.24,13.0000,38.0000
1983-08-11 23:00:00 UTC,2445558.458333,28.7467,-95.2267,0192,9.64,11.49,15.0000,40.0000
1983-08-11 23:30:00 UTC,2445558.479167,28.7467,-95.2267,0192,11.82,9.23,15.0000,52.0000
1983-08-12 00:00:00 UTC,2445558.500000,28.7467,-95.2267,0192,11.54,3.31,12.0000,74.0000
1983-08-12 00:30:00 UTC,2445558.520833,28.7467,-95.2267,0192,9.56,-2.92,10.0000,107.0000
1983-08-12 01:00:00 UTC,2445558.541667,28.7467,-95.2267,0192,6.56,-7.55,10.0000,139.0000
1983-08-12 01:30:00 UTC,2445558.562500,28.7467,-95.2267,0192,4.66,-12.14,13.0000,159.0000
1983-08-12 02:00:00 UTC,2445558.583333,28.7467,-95.2267,0192,2.35,-14.82,15.0000,171.0000
1983-08-12 02:30:00 UTC,2445558.604167,28.7467,-95.2267,0192,-0.59,-16.99,17.0000,182.0000
1983-08-12 03:00:00 UTC,2445558.625000,28.7467,-95.2267,0192,-3.53,-16.63,17.0000,192.0000
1983-08-12 03:30:00 UTC,2445558.645833,28.7467,-95.2267,0192,-5.24,-12.98,14.0000,202.0000
1983-08-12 04:00:00 UTC,2445558.666667,28.7467,-95.2267,0192,-5.59,-8.29,10.0000,214.0000
1983-08-12 04:30:00 UTC,2445558.687500,28.7467,-95.2267,0192,-5.66,-6.99,9.0000,219.0000
1983-08-12 05:00:00 UTC,2445558.708333,28.7467,-95.2267,0192,-5.42,-7.19,9.0000,217.0000
1983-08-12 05:30:00 UTC,2445558.729167,28.7467,-95.2267,0192,-5.56,-5.75,8.0000,224.0000
1983-08-12 06:00:00 UTC,2445558.750000,28.7467,-95.2267,0192,-4.60,-3.86,6.0000,230.0000
1983-08-12 06:30:00 UTC,2445558.770833,28.7467,-95.2267,0192,-2.65,-4.24,5.0000,212.0000
1983-08-12 07:00:00 UTC,2445558.791667,28.7467,-95.2267,0192,-1.12,-4.87,5.0000,193.0000
1983-08-12 07:30:00 UTC,2445558.812500,28.7467,-95.2267,0192,-1.04,-4.89,5.0000,192.0000
1983-08-12 08:00:00 UTC,2445558.833333,28.7467,-95.2267,0192,-1.63,-3.65,4.0000,204.0000
1983-08-12 08:30:00 UTC,2445558.854167,28.7467,-95.2267,0192,-1.80,-0.88,2.0000,244.0000
1983-08-12 09:00:00 UTC,2445558.875000,28.7467,-95.2267,0192,-1.55,1.26,2.0000,309.0000
1983-08-12 09:30:00 UTC,2445558.895833,28.7467,-95.2267,0192,-1.68,2.49,3.0000,326.0000
1983-08-12 10:00:00 UTC,2445558.916667,28.7467,-95.2267,0192,-1.89,2.33,3.0000,321.0000
1983-08-12 10:30:00 UTC,2445558.937500,28.7467,-95.2267,0192,-2.35,3.24,4.0000,324.0000
1983-08-12 11:00:00 UTC,2445558.958333,28.7467,-95.2267,0192,-2.03,4.57,5.0000,336.0000
1983-08-12 11:30:00 UTC,2445558.979167,28.7467,-95.2267,0192,-1.93,6.73,7.0000,344.0000
1983-08-12 12:00:00 UTC,2445559.000000,28.7467,-95.2267,0192,-2.18,8.73,9.0000,346.0000
1983-08-12 12:30:00 UTC,2445559.020833,28.7467,-95.2267,0192,-2.59,9.66,10.0000,345.0000
1983-08-12 13:00:00 UTC,2445559.041667,28.7467,-95.2267,0192,-3.22,10.52,11.0000,343.0000
1983-08-12 13:30:00 UTC,2445559.062500,28.7467,-95.2267,0192,-4.10,11.28,12.0000,340.0000
1983-08-12 14:00:00 UTC,2445559.083333,28.7467,-95.2267,0192,-4.47,10.05,11.0000,336.0000
1983-08-12 14:30:00 UTC,2445559.104167,28.7467,-95.2267,0192,-4.77,7.63,9.0000,328.0000
1983-08-12 15:00:00 UTC,2445559.125000,28.7467,-95.2267,0192,-4.93,6.30,8.0000,322.0000
1983-08-12 15:30:00 UTC,2445559.145833,28.7467,-95.2267,0192,-4.59,6.55,8.0000,325.0000
1983-08-12 16:00:00 UTC,2445559.166667,28.7467,-95.2267,0192,-3.38,7.25,8.0000,335.0000
1983-08-12 16:30:00 UTC,2445559.187500,28.7467,-95.2267,0192,-1.93,6.73,7.0000,344.0000
1983-08-12 17:00:00 UTC,2445559.208333,28.7467,-95.2267,0192,-1.25,7.90,8.0000,351.0000
1983-08-12 17:30:00 UTC,2445559.229167,28.7467,-95.2267,0192,0.16,9.00,9.0000,1.0000
1983-08-12 18:00:00 UTC,2445559.250000,28.7467,-95.2267,0192,2.08,9.78,10.0000,12.0000
1983-08-12 18:30:00 UTC,2445559.270833,28.7467,-95.2267,0192,3.40,10.46,11.0000,18.0000
1983-08-12 19:00:00 UTC,2445559.291667,28.7467,-95.2267,0192,4.02,12.36,13.0000,18.0000
1983-08-12 19:30:00 UTC,2445559.312500,28.7467,-95.2267,0192,4.39,14.34,15.0000,17.0000
1983-08-12 20:00:00 UTC,2445559.333333,28.7467,-95.2267,0192,4.40,16.42,17.0000,15.0000
1983-08-12 20:30:00 UTC,2445559.354167,28.7467,-95.2267,0192,4.60,18.44,19.0000,14.0000
1983-08-12 21:00:00 UTC,2445559.375000,28.7467,-95.2267,0192,5.24,18.26,19.0000,16.0000
1983-08-12 21:30:00 UTC,2445559.395833,28.7467,-95.2267,0192,6.51,18.91,20.0000,19.0000
1983-08-12 22:00:00 UTC,2445559.416667,28.7467,-95.2267,0192,7.11,21.87,23.0000,18.0000
1983-08-12 22:30:00 UTC,2445559.437500,28.7467,-95.2267,0192,7.44,25.95,27.0000,16.0000
1983-08-12 23:00:00 UTC,2445559.458333,28.7467,-95.2267,0192,7.44,25.95,27.0000,16.0000
1983-08-12 23:30:00 UTC,2445559.479167,28.7467,-95.2267,0192,7.17,24.99,26.0000,16.0000
1983-08-13 00:00:00 UTC,2445559.500000,28.7467,-95.2267,0192,5.62,24.36,25.0000,13.0000
1983-08-13 00:30:00 UTC,2445559.520833,28.7467,-95.2267,0192,5.85,25.33,26.0000,13.0000
1983-08-13 01:00:00 UTC,2445559.541667,28.7467,-95.2267,0192,7.31,23.91,25.0000,17.0000
1983-08-13 01:30:00 UTC,2445559.562500,28.7467,-95.2267,0192,8.21,22.55,24.0000,20.0000
1983-08-13 02:00:00 UTC,2445559.583333,28.7467,-95.2267,0192,6.14,20.08,21.0000,17.0000
1983-08-13 02:30:00 UTC,2445559.604167,28.7467,-95.2267,0192,5.18,19.32,20.0000,15.0000
1983-08-13 03:00:00 UTC,2445559.625000,28.7467,-95.2267,0192,4.27,18.51,19.0000,13.0000
1983-08-13 03:30:00 UTC,2445559.645833,28.7467,-95.2267,0192,3.13,17.73,18.0000,10.0000
1983-08-13 04:00:00 UTC,2445559.666667,28.7467,-95.2267,0192,2.66,16.79,17.0000,9.0000
1983-08-13 04:30:00 UTC,2445559.687500,28.7467,-95.2267,0192,2.07,16.87,17.0000,7.0000
1983-08-13 05:00:00 UTC,2445559.708333,28.7467,-95.2267,0192,0.56,15.99,16.0000,2.0000
1983-08-13 05:30:00 UTC,2445559.729167,28.7467,-95.2267,0192,-1.71,13.90,14.0000,353.0000
1983-08-13 06:00:00 UTC,2445559.750000,28.7467,-95.2267,0192,-3.12,14.67,15.0000,348.0000
1983-08-13 06:30:00 UTC,2445559.770833,28.7467,-95.2267,0192,-3.12,14.67,15.0000,348.0000
1983-08-13 07:00:00 UTC,2445559.791667,28.7467,-95.2267,0192,-2.35,14.82,15.0000,351.0000
1983-08-13 07:30:00 UTC,2445559.812500,28.7467,-95.2267,0192,-1.95,15.88,16.0000,353.0000
1983-08-13 08:00:00 UTC,2445559.833333,28.7467,-95.2267,0192,-0.89,16.98,17.0000,357.0000
1983-08-13 08:30:00 UTC,2445559.854167,28.7467,-95.2267,0192,0.31,18.00,18.0000,1.0000
1983-08-13 09:00:00 UTC,2445559.875000,28.7467,-95.2267,0192,1.57,17.93,18.0000,5.0000
1983-08-13 09:30:00 UTC,2445559.895833,28.7467,-95.2267,0192,2.51,17.82,18.0000,8.0000
1983-08-13 10:00:00 UTC,2445559.916667,28.7467,-95.2267,0192,2.82,17.78,18.0000,9.0000
1983-08-13 10:30:00 UTC,2445559.937500,28.7467,-95.2267,0192,3.24,16.69,17.0000,11.0000
1983-08-13 11:00:00 UTC,2445559.958333,28.7467,-95.2267,0192,4.11,16.50,17.0000,14.0000
1983-08-13 11:30:00 UTC,2445559.979167,28.7467,-95.2267,0192,4.41,15.38,16.0000,16.0000
1983-08-13 12:00:00 UTC,2445560.000000,28.7467,-95.2267,0192,4.13,14.42,15.0000,16.0000
1983-08-13 12:30:00 UTC,2445560.020833,28.7467,-95.2267,0192,3.39,13.58,14.0000,14.0000
1983-08-13 13:00:00 UTC,2445560.041667,28.7467,-95.2267,0192,1.88,11.85,12.0000,9.0000
1983-08-13 13:30:00 UTC,2445560.062500,28.7467,-95.2267,0192,0.77,10.97,11.0000,4.0000
1983-08-13 14:00:00 UTC,2445560.083333,28.7467,-95.2267,0192,0.35,9.99,10.0000,2.0000
1983-08-13 14:30:00 UTC,2445560.104167,28.7467,-95.2267,0192,0.17,10.00,10.0000,1.0000
1983-08-13 15:00:00 UTC,2445560.125000,28.7467,-95.2267,0192,-0.16,9.00,9.0000,359.0000
1983-08-13 15:30:00 UTC,2445560.145833,28.7467,-95.2267,0192,-0.28,8.00,8.0000,358.0000
1983-08-13 16:00:00 UTC,2445560.166667,28.7467,-95.2267,0192,-0.49,6.98,7.0000,356.0000
1983-08-13 16:30:00 UTC,2445560.187500,28.7467,-95.2267,0192,-1.29,4.83,5.0000,345.0000
1983-08-13 17:00:00 UTC,2445560.208333,28.7467,-95.2267,0192,-2.00,3.46,4.0000,330.0000
1983-08-13 17:30:00 UTC,2445560.229167,28.7467,-95.2267,0192,-1.79,4.67,5.0000,339.0000
1983-08-13 18:00:00 UTC,2445560.250000,28.7467,-95.2267,0192,-2.18,8.73,9.0000,346.0000
1983-08-13 18:30:00 UTC,2445560.270833,28.7467,-95.2267,0192,-2.92,12.67,13.0000,347.0000
1983-08-13 19:00:00 UTC,2445560.291667,28.7467,-95.2267,0192,-2.86,14.72,15.0000,349.0000
1983-08-13 19:30:00 UTC,2445560.312500,28.7467,-95.2267,0192,-1.83,14.89,15.0000,353.0000
1983-08-13 20:00:00 UTC,2445560.333333,28.7467,-95.2267,0192,-1.31,14.94,15.0000,355.0000
1983-08-13 20:30:00 UTC,2445560.354167,28.7467,-95.2267,0192,-0.59,16.99,17.0000,358.0000
1983-08-13 21:00:00 UTC,2445560.375000,28.7467,-95.2267,0192,0.59,16.99,17.0000,2.0000
1983-08-13 21:30:00 UTC,2445560.395833,28.7467,-95.2267,0192,2.37,16.83,17.0000,8.0000
1983-08-13 22:00:00 UTC,2445560.416667,28.7467,-95.2267,0192,3.24,16.69,17.0000,11.0000
1983-08-13 22:30:00 UTC,2445560.437500,28.7467,-95.2267,0192,3.53,16.63,17.0000,12.0000
1983-08-13 23:00:00 UTC,2445560.458333,28.7467,-95.2267,0192,4.11,16.50,17.0000,14.0000
1983-08-13 23:30:00 UTC,2445560.479167,28.7467,-95.2267,0192,4.68,15.30,16.0000,17.0000
1983-08-14 00:00:00 UTC,2445560.500000,28.7467,-95.2267,0192,4.39,14.34,15.0000,17.0000
1983-08-14 00:30:00 UTC,2445560.520833,28.7467,-95.2267,0192,4.56,13.24,14.0000,19.0000
1983-08-14 01:00:00 UTC,2445560.541667,28.7467,-95.2267,0192,5.70,11.68,13.0000,26.0000
1983-08-14 01:30:00 UTC,2445560.562500,28.7467,-95.2267,0192,6.62,8.78,11.0000,37.0000
1983-08-14 02:00:00 UTC,2445560.583333,28.7467,-95.2267,0192,6.02,6.69,9.0000,42.0000
1983-08-14 02:30:00 UTC,2445560.604167,28.7467,-95.2267,0192,3.76,7.06,8.0000,28.0000
1983-08-14 03:00:00 UTC,2445560.625000,28.7467,-95.2267,0192,1.87,8.80,9.0000,12.0000
1983-08-14 03:30:00 UTC,2445560.645833,28.7467,-95.2267,0192,1.91,10.83,11.0000,10.0000
1983-08-14 04:00:00 UTC,2445560.666667,28.7467,-95.2267,0192,1.88,11.85,12.0000,9.0000
1983-08-14 04:30:00 UTC,2445560.687500,28.7467,-95.2267,0192,1.58,12.90,13.0000,7.0000
1983-08-14 05:00:00 UTC,2445560.708333,28.7467,-95.2267,0192,1.57,14.92,15.0000,6.0000
1983-08-14 05:30:00 UTC,2445560.729167,28.7467,-95.2267,0192,1.95,15.88,16.0000,7.0000
1983-08-14 06:00:00 UTC,2445560.750000,28.7467,-95.2267,0192,3.13,17.73,18.0000,10.0000
1983-08-14 06:30:00 UTC,2445560.770833,28.7467,-95.2267,0192,4.27,18.51,19.0000,13.0000
1983-08-14 07:00:00 UTC,2445560.791667,28.7467,-95.2267,0192,4.72,20.46,21.0000,13.0000
1983-08-14 07:30:00 UTC,2445560.812500,28.7467,-95.2267,0192,4.72,20.46,21.0000,13.0000
1983-08-14 08:00:00 UTC,2445560.833333,28.7467,-95.2267,0192,5.08,20.38,21.0000,14.0000
1983-08-14 08:30:00 UTC,2445560.854167,28.7467,-95.2267,0192,6.14,20.08,21.0000,17.0000
1983-08-14 09:00:00 UTC,2445560.875000,28.7467,-95.2267,0192,7.18,19.73,21.0000,20.0000
1983-08-14 09:30:00 UTC,2445560.895833,28.7467,-95.2267,0192,7.49,18.54,20.0000,22.0000
1983-08-14 10:00:00 UTC,2445560.916667,28.7467,-95.2267,0192,7.49,18.54,20.0000,22.0000
1983-08-14 10:30:00 UTC,2445560.937500,28.7467,-95.2267,0192,7.49,18.54,20.0000,22.0000
1983-08-14 11:00:00 UTC,2445560.958333,28.7467,-95.2267,0192,8.03,17.22,19.0000,25.0000
1983-08-14 11:30:00 UTC,2445560.979167,28.7467,-95.2267,0192,8.17,16.04,18.0000,27.0000
1983-08-14 12:00:00 UTC,2445561.000000,28.7467,-95.2267,0192,7.98,15.01,17.0000,28.0000
1983-08-14 12:30:00 UTC,2445561.020833,28.7467,-95.2267,0192,7.95,12.72,15.0000,32.0000
1983-08-14 13:00:00 UTC,2445561.041667,28.7467,-95.2267,0192,8.36,9.96,13.0000,40.0000
1983-08-14 13:30:00 UTC,2445561.062500,28.7467,-95.2267,0192,6.89,5.79,9.0000,50.0000
1983-08-14 14:00:00 UTC,2445561.083333,28.7467,-95.2267,0192,4.21,5.59,7.0000,37.0000
1983-08-14 14:30:00 UTC,2445561.104167,28.7467,-95.2267,0192,1.05,9.95,10.0000,6.0000
1983-08-14 15:00:00 UTC,2445561.125000,28.7467,-95.2267,0192,-1.95,13.86,14.0000,352.0000
1983-08-14 15:30:00 UTC,2445561.145833,28.7467,-95.2267,0192,-4.97,16.26,17.0000,343.0000
1983-08-14 16:00:00 UTC,2445561.166667,28.7467,-95.2267,0192,-7.42,17.49,19.0000,337.0000
1983-08-14 16:30:00 UTC,2445561.187500,28.7467,-95.2267,0192,-8.03,17.22,19.0000,335.0000
1983-08-14 17:00:00 UTC,2445561.208333,28.7467,-95.2267,0192,-5.56,18.17,19.0000,343.0000
1983-08-14 17:30:00 UTC,2445561.229167,28.7467,-95.2267,0192,-0.63,17.99,18.0000,358.0000
1983-08-14 18:00:00 UTC,2445561.250000,28.7467,-95.2267,0192,2.95,16.74,17.0000,10.0000
1983-08-14 18:30:00 UTC,2445561.270833,28.7467,-95.2267,0192,5.25,16.17,17.0000,18.0000
1983-08-14 19:00:00 UTC,2445561.291667,28.7467,-95.2267,0192,6.74,16.69,18.0000,22.0000
1983-08-14 19:30:00 UTC,2445561.312500,28.7467,-95.2267,0192,8.03,17.22,19.0000,25.0000
1983-08-14 20:00:00 UTC,2445561.333333,28.7467,-95.2267,0192,8.92,16.78,19.0000,28.0000
1983-08-14 20:30:00 UTC,2445561.354167,28.7467,-95.2267,0192,7.45,15.28,17.0000,26.0000
1983-08-14 21:00:00 UTC,2445561.375000,28.7467,-95.2267,0192,6.64,15.65,17.0000,23.0000
1983-08-14 21:30:00 UTC,2445561.395833,28.7467,-95.2267,0192,7.42,17.49,19.0000,23.0000
1983-08-14 22:00:00 UTC,2445561.416667,28.7467,-95.2267,0192,7.17,18.67,20.0000,21.0000
1983-08-14 22:30:00 UTC,2445561.437500,28.7467,-95.2267,0192,6.80,20.92,22.0000,18.0000
1983-08-14 23:00:00 UTC,2445561.458333,28.7467,-95.2267,0192,5.69,21.25,22.0000,15.0000
1983-08-14 23:30:00 UTC,2445561.479167,28.7467,-95.2267,0192,5.08,20.38,21.0000,14.0000
1983-08-15 00:00:00 UTC,2445561.500000,28.7467,-95.2267,0192,5.51,19.23,20.0000,16.0000
1983-08-15 00:30:00 UTC,2445561.520833,28.7467,-95.2267,0192,5.56,18.17,19.0000,17.0000
1983-08-15 01:00:00 UTC,2445561.541667,28.7467,-95.2267,0192,5.26,17.21,18.0000,17.0000
1983-08-15 01:30:00 UTC,2445561.562500,28.7467,-95.2267,0192,4.11,16.50,17.0000,14.0000
1983-08-15 02:00:00 UTC,2445561.583333,28.7467,-95.2267,0192,2.23,15.84,16.0000,8.0000
1983-08-15 02:30:00 UTC,2445561.604167,28.7467,-95.2267,0192,0.30,17.00,17.0000,1.0000
1983-08-15 03:00:00 UTC,2445561.625000,28.7467,-95.2267,0192,-1.99,18.90,19.0000,354.0000
1983-08-15 03:30:00 UTC,2445561.645833,28.7467,-95.2267,0192,-3.13,19.75,20.0000,351.0000
1983-08-15 04:00:00 UTC,2445561.666667,28.7467,-95.2267,0192,-2.64,18.82,19.0000,352.0000
1983-08-15 04:30:00 UTC,2445561.687500,28.7467,-95.2267,0192,-1.57,17.93,18.0000,355.0000
1983-08-15 05:00:00 UTC,2445561.708333,28.7467,-95.2267,0192,-1.12,15.96,16.0000,356.0000
1983-08-15 05:30:00 UTC,2445561.729167,28.7467,-95.2267,0192,-1.05,14.96,15.0000,356.0000
1983-08-15 06:00:00 UTC,2445561.750000,28.7467,-95.2267,0192,-0.23,13.00,13.0000,359.0000
1983-08-15 06:30:00 UTC,2445561.770833,28.7467,-95.2267,0192,0.23,13.00,13.0000,1.0000
1983-08-15 07:00:00 UTC,2445561.791667,28.7467,-95.2267,0192,0.68,12.98,13.0000,3.0000
1983-08-15 07:30:00 UTC,2445561.812500,28.7467,-95.2267,0192,1.36,12.93,13.0000,6.0000
1983-08-15 08:00:00 UTC,2445561.833333,28.7467,-95.2267,0192,1.58,12.90,13.0000,7.0000
1983-08-15 08:30:00 UTC,2445561.854167,28.7467,-95.2267,0192,1.36,12.93,13.0000,6.0000
1983-08-15 09:00:00 UTC,2445561.875000,28.7467,-95.2267,0192,0.68,12.98,13.0000,3.0000
1983-08-15 09:30:00 UTC,2445561.895833,28.7467,-95.2267,0192,0.49,13.99,14.0000,2.0000
1983-08-15 10:00:00 UTC,2445561.916667,28.7467,-95.2267,0192,1.05,14.96,15.0000,4.0000
1983-08-15 10:30:00 UTC,2445561.937500,28.7467,-95.2267,0192,2.23,15.84,16.0000,8.0000
1983-08-15 11:00:00 UTC,2445561.958333,28.7467,-95.2267,0192,2.37,16.83,17.0000,8.0000
1983-08-15 11:30:00 UTC,2445561.979167,28.7467,-95.2267,0192,1.88,17.90,18.0000,6.0000
1983-08-15 12:00:00 UTC,2445562.000000,28.7467,-95.2267,0192,1.33,18.95,19.0000,4.0000
1983-08-15 12:30:00 UTC,2445562.020833,28.7467,-95.2267,0192,0.66,18.99,19.0000,2.0000
1983-08-15 13:00:00 UTC,2445562.041667,28.7467,-95.2267,0192,0.70,19.99,20.0000,2.0000
1983-08-15 13:30:00 UTC,2445562.062500,28.7467,-95.2267,0192,1.46,20.95,21.0000,4.0000
1983-08-15 14:00:00 UTC,2445562.083333,28.7467,-95.2267,0192,1.74,19.92,20.0000,5.0000
1983-08-15 14:30:00 UTC,2445562.104167,28.7467,-95.2267,0192,1.66,18.93,19.0000,5.0000
1983-08-15 15:00:00 UTC,2445562.125000,28.7467,-95.2267,0192,2.32,18.86,19.0000,7.0000
1983-08-15 15:30:00 UTC,2445562.145833,28.7467,-95.2267,0192,2.97,18.77,19.0000,9.0000
1983-08-15 16:00:00 UTC,2445562.166667,28.7467,-95.2267,0192,3.74,17.61,18.0000,12.0000
1983-08-15 16:30:00 UTC,2445562.187500,28.7467,-95.2267,0192,4.35,17.47,18.0000,14.0000
1983-08-15 17:00:00 UTC,2445562.208333,28.7467,-95.2267,0192,3.24,16.69,17.0000,11.0000
1983-08-15 17:30:00 UTC,2445562.229167,28.7467,-95.2267,0192,2.37,16.83,17.0000,8.0000
1983-08-15 18:00:00 UTC,2445562.250000,28.7467,-95.2267,0192,1.67,15.91,16.0000,6.0000
1983-08-15 18:30:00 UTC,2445562.270833,28.7467,-95.2267,0192,1.57,14.92,15.0000,6.0000
1983-08-15 19:00:00 UTC,2445562.291667,28.7467,-95.2267,0192,1.22,13.95,14.0000,5.0000
1983-08-15 19:30:00 UTC,2445562.312500,28.7467,-95.2267,0192,0.68,12.98,13.0000,3.0000
1983-08-15 20:00:00 UTC,2445562.333333,28.7467,-95.2267,0192,0.23,13.00,13.0000,1.0000
1983-08-15 20:30:00 UTC,2445562.354167,28.7467,-95.2267,0192,0.23,13.00,13.0000,1.0000
1983-08-15 21:00:00 UTC,2445562.375000,28.7467,-95.2267,0192,0.63,11.98,12.0000,3.0000
1983-08-15 21:30:00 UTC,2445562.395833,28.7467,-95.2267,0192,0.58,10.98,11.0000,3.0000
1983-08-15 22:00:00 UTC,2445562.416667,28.7467,-95.2267,0192,0.00,11.00,11.0000,0.0000
1983-08-15 22:30:00 UTC,2445562.437500,28.7467,-95.2267,0192,-0.17,10.00,10.0000,359.0000
1983-08-15 23:00:00 UTC,2445562.458333,28.7467,-95.2267,0192,-0.16,9.00,9.0000,359.0000
1983-08-15 23:30:00 UTC,2445562.479167,28.7467,-95.2267,0192,-0.70,7.97,8.0000,355.0000
1983-08-16 00:00:00 UTC,2445562.500000,28.7467,-95.2267,0192,-1.25,7.90,8.0000,351.0000
1983-08-16 00:30:00 UTC,2445562.520833,28.7467,-95.2267,0192,-1.22,6.89,7.0000,350.0000
1983-08-16 01:00:00 UTC,2445562.541667,28.7467,-95.2267,0192,-1.22,6.89,7.0000,350.0000
1983-08-16 01:30:00 UTC,2445562.562500,28.7467,-95.2267,0192,-1.81,6.76,7.0000,345.0000
1983-08-16 02:00:00 UTC,2445562.583333,28.7467,-95.2267,0192,-2.15,5.60,6.0000,339.0000
1983-08-16 02:30:00 UTC,2445562.604167,28.7467,-95.2267,0192,-2.44,5.48,6.0000,336.0000
1983-08-16 03:00:00 UTC,2445562.625000,28.7467,-95.2267,0192,-2.44,5.48,6.0000,336.0000
1983-08-16 03:30:00 UTC,2445562.645833,28.7467,-95.2267,0192,-2.63,5.39,6.0000,334.0000
1983-08-16 04:00:00 UTC,2445562.666667,28.7467,-95.2267,0192,-2.42,4.37,5.0000,331.0000
1983-08-16 04:30:00 UTC,2445562.687500,28.7467,-95.2267,0192,-1.88,3.53,4.0000,332.0000
1983-08-16 05:00:00 UTC,2445562.708333,28.7467,-95.2267,0192,-0.91,1.78,2.0000,333.0000
1983-08-16 05:30:00 UTC,2445562.729167,28.7467,-95.2267,0192,-0.92,0.39,1.0000,293.0000
1983-08-16 06:00:00 UTC,2445562.750000,28.7467,-95.2267,0192,-2.76,1.17,3.0000,293.0000
1983-08-16 06:30:00 UTC,2445562.770833,28.7467,-95.2267,0192,-3.39,2.12,4.0000,302.0000
1983-08-16 07:00:00 UTC,2445562.791667,28.7467,-95.2267,0192,-3.19,2.41,4.0000,307.0000
1983-08-16 07:30:00 UTC,2445562.812500,28.7467,-95.2267,0192,-2.85,0.93,3.0000,288.0000
1983-08-16 08:00:00 UTC,2445562.833333,28.7467,-95.2267,0192,-4.95,-0.70,5.0000,262.0000
1983-08-16 08:30:00 UTC,2445562.854167,28.7467,-95.2267,0192,-5.60,-2.15,6.0000,249.0000